0 LANDSAT 4 1 13367U 82072A 20357.38490373 .00001107 00000-0 59224-4 0 9998 2 13367 98.1855 282.9888 0013556 141.6524 331.5839 15.17398707 79675 0 LANDSAT 5 1 14780U 84021A 20357.40415844 .00000630 00000-0 63838-4 0 9993 2 14780 98.1890 161.7013 0088557 266.9827 92.1254 14.92171824491803 0 ELEKTRO (GOMS) 1 23327U 94069A 20357.06550196 -.00000124 00000-0 00000-0 0 9992 2 23327 15.0699 5.4074 0003472 223.7445 322.3616 1.00256604 95788 0 USA 107 1 23435U 94084A 20357.44775198 -.00000165 00000-0 00000-0 0 9997 2 23435 14.5744 10.2741 0000813 102.8201 43.0960 1.00272561 12879 0 HIMAWARI 5 (GMS 5) 1 23522U 95011B 20357.37716417 -.00000199 00000-0 00000-0 0 9993 2 23522 13.4745 18.8667 0007088 69.4630 309.2176 0.99409584 93690 0 USA 130 1 24737U 97008A 20357.26715399 .00000031 00000-0 00000-0 0 9990 2 24737 13.6578 18.2116 0000218 10.0461 167.1082 1.00283091 12818 0 ORBVIEW 2 (SEASTAR) 1 24883U 97037A 20357.29124341 .00000052 00000-0 34917-4 0 9999 2 24883 98.6270 109.8122 0001216 266.3534 93.7511 14.33587463235629 0 LANDSAT 7 1 25682U 99020A 20358.17713846 .00000015 00000-0 13116-4 0 9990 2 25682 98.0589 55.0461 0001359 71.2580 288.8759 14.57193596153721 0 USA 149 1 26356U 00024A 20357.35482840 .00000100 00000-0 00000-0 0 9990 2 26356 11.6854 25.1262 0000307 357.7194 30.5027 1.00278971 12839 0 FENGYUN 2B 1 26382U 00032A 20357.26286743 .00000099 00000-0 00000-0 0 9999 2 26382 11.3214 30.4644 0004596 319.8813 55.6737 1.00079696 74881 0 USA 159 1 26880U 01033A 20357.34913056 -.00000294 00000-0 00000-0 0 9995 2 26880 10.9394 29.1510 0001073 290.0105 208.4475 1.00263762 12884 0 AQUA 1 27424U 02022A 20358.12375789 .00000137 00000-0 40499-4 0 9996 2 27424 98.2118 295.9753 0002354 102.1879 24.0072 14.57108993991395 0 FENGYUN 1D 1 27431U 02024B 20358.01717824 .00000064 00000-0 62397-4 0 9994 2 27431 99.1476 359.1203 0016396 93.3110 266.9936 14.09712202957426 0 METEOSAT 8 (MSG 1) 1 27509U 02040B 20357.30604823 .00000142 00000-0 00000-0 0 9999 2 27509 7.0578 53.2985 0001132 170.5533 19.1339 1.00266561 67179 0 CORIOLIS 1 27640U 03001A 20357.48242209 .00000001 00000-0 21208-4 0 9999 2 27640 98.7249 4.0344 0013600 212.7873 303.4746 14.19056165930103 0 USA 176 1 28158U 04004A 20358.07257546 -.00000211 00000-0 00000+0 0 9990 2 28158 9.4013 38.2190 0000978 252.6524 274.6308 1.00269454 11537 0 FENGYUN 2C 1 28451U 04042A 20357.20251205 -.00000050 00000-0 00000-0 0 9990 2 28451 9.2828 43.4743 0007322 330.1546 194.1621 0.98082393 21528 0 HIMAWARI 6 1 28622U 05006A 20357.43726440 -.00000262 00000-0 00000-0 0 9999 2 28622 4.6053 76.1896 0016258 252.3060 61.3555 0.98916320 24208 0 GOES 14 1 35491U 09033A 20357.52236243 -.00000084 00000-0 00000-0 0 9994 2 35491 0.1487 254.8776 0013003 329.8730 310.5971 1.00272266 42033 0 METEOR-M 1 35865U 09049A 20357.91846278 .00000033 00000-0 33581-4 0 9991 2 35865 98.4592 337.1289 0002680 28.4083 331.7241 14.22259721584700 0 NAVSTAR 65 (USA 213) 1 36585U 10022A 20357.46434396 -.00000068 00000-0 00000-0 0 9993 2 36585 55.1741 289.3625 0093455 52.3709 163.2538 2.00561488 77421 0 NPP 1 37849U 11061A 20358.16994340 .00000020 00000-0 29982-4 0 9990 2 37849 98.7210 293.3519 0001593 84.8425 27.4059 14.19545460474394 0 METEOSAT 10 (MSG 3) 1 38552U 12035B 20357.26741569 .00000069 00000-0 00000-0 0 9996 2 38552 1.2536 354.0067 0001208 212.4868 350.3465 1.00277147 30771 0 METOP-B 1 38771U 12049A 20358.20073418 .00000007 00000-0 23015-4 0 9997 2 38771 98.7061 54.7741 0001966 141.8689 285.6686 14.21480717428837 0 NAVSTAR 67 (USA 239) 1 38833U 12053A 20356.52928337 .00000017 00000-0 00000-0 0 9999 2 38833 53.6050 225.6308 0105674 39.8567 320.9895 2.00569021 59367 0 NAVSTAR 68 (USA 242) 1 39166U 13023A 20356.39237260 -.00000078 00000-0 00000-0 0 9998 2 39166 55.9850 349.3962 0085919 30.9588 329.5614 2.00563887 55694 0 FENGYUN 3C 1 39260U 13052A 20358.10060961 -.00000007 00000-0 17333-4 0 9991 2 39260 98.5257 40.6616 0011809 38.7020 321.5014 14.15854013375317 0 NAVSTAR 69 (USA 248) 1 39533U 14008A 20356.88843437 .00000010 00000-0 00000-0 0 9998 2 39533 53.7141 231.0692 0047957 199.4828 160.4071 2.00551915 49529 0 NAVSTAR 70 (USA 251) 1 39741U 14026A 20357.16712683 -.00000094 00000-0 00000-0 0 9992 2 39741 56.2737 49.4234 0023581 292.1177 67.6837 2.00563859 48366 0 NAVSTAR 71 (USA 256) 1 40105U 14045A 20357.25862444 .00000090 00000-0 00000-0 0 9995 2 40105 54.6071 168.4498 0018048 103.5537 256.6586 2.00572267 45930 0 HIMAWARI 8 1 40267U 14060A 20357.43717715 -.00000267 00000-0 00000-0 0 9998 2 40267 0.0502 165.9431 0001269 107.3886 116.1526 1.00272429 22674 0 NAVSTAR 72 (USA 258) 1 40294U 14068A 20356.63447301 -.00000007 00000-0 00000-0 0 9990 2 40294 55.4469 109.4440 0030739 48.2364 312.0108 2.00561904 45028 0 NAVSTAR 73 (USA 260) 1 40534U 15013A 20356.26998438 -.00000064 00000-0 00000-0 0 9992 2 40534 54.0848 287.1672 0054402 10.8352 349.2990 2.00557156 41635 0 NAVSTAR 74 (USA 262) 1 40730U 15033A 20356.93377406 -.00000078 00000-0 00000-0 0 9997 2 40730 55.4970 348.4600 0059670 354.5111 5.4390 2.00553132 39811 0 METEOSAT 11 (MSG 4) 1 40732U 15034A 20357.44007887 .00000009 00000-0 00000-0 0 9993 2 40732 0.3948 263.7414 0001315 280.5565 65.7435 1.00278956 19952 0 GOES 16 1 41866U 16071A 20358.18230671 -.00000237 00000-0 00000+0 0 9998 2 41866 0.0437 186.7066 0001460 112.7293 143.1824 1.00269730 15031 0 NOAA 20 1 43013U 17073A 20358.11298825 .00000001 00000-0 21257-4 0 9995 2 43013 98.7375 293.2769 0001142 100.0257 260.1048 14.19545746160423